[[{"header":{"parameterUnit":"m.s-1","parameterCategory":1,"la1":30.2991,"la2":30.254,"lo1":-89.0895,"lo2":-89.0444,"dy":0.0017,"dx":0.0017,"nx":28,"ny":28,"refTime":"2024-04-13T21:00:00:Z","depth":0,"parameterNumber":2,"parameterNumberName":"U-component_of_WINDS"},"data":[0,0,0,0,0,0,0,0,0,0,0,0,0,0,0,0,0,0,0,0,0,0,0,0,0,0,0,0,0,0,0,0,0,0,0,0,0,0,0,0,0,0,0,0,0,0,0,0,0,0,0,0,0,0,0,0,0,0,1.1426,1.1427,0,1.1522,1.1524,1.1525,1.1568,1.1567,1.1567,1.1567,1.1665,1.1668,1.167,0,0,0,0,0,0,0,0,0,0,0,0,0,1.1274,1.1277,1.1425,1.1427,1.1428,1.1522,1.1524,1.1525,1.1568,1.1567,1.1567,1.1567,1.1664,1.1667,1.1671,0,0,0,0,0,0,0,0,0,0,0,0,0,1.1352,1.1278,1.1425,1.1461,1.1465,1.1522,1.1524,1.1525,1.1568,1.1567,1.1567,1.1567,1.1663,1.1667,1.1671,1.17,0,0,1.1683,1.1685,0,0,0,0,0,0,0,0,1.1348,1.1358,1.1454,1.1458,1.1463,1.1533,1.1506,1.1584,1.1568,1.1528,1.1567,1.1567,1.1621,1.1629,1.1647,1.1704,1.1709,1.1684,1.1686,1.1688,1.1689,0,0,0,0,0,0,0,1.1342,1.1354,1.1464,1.1455,1.1461,1.1471,1.1482,1.1521,1.1575,1.1532,1.1535,1.1546,1.1623,1.1643,1.165,1.171,1.1684,1.1687,1.169,1.1691,1.1795,1.1795,0,0,0,0,0,0,1.1332,1.1349,1.1461,1.1467,1.1404,1.1473,1.1486,1.151,1.1574,1.1584,1.1546,1.1548,1.1636,1.1645,1.1653,1.1691,1.1688,1.1692,1.1694,1.1794,1.1795,1.1795,0,0,0,0,0,0,1.1328,1.1341,1.1457,1.1409,1.1424,1.1476,1.1504,1.1513,1.1532,1.1585,1.1595,1.1557,1.1636,1.1648,1.1688,1.1695,1.1694,1.1697,1.1794,1.1795,1.1795,1.1766,0,0,0,0,0,0,1.1324,1.134,1.1352,1.1409,1.1427,1.149,1.1504,1.1515,1.1539,1.1542,1.1598,1.1606,1.1637,1.1681,1.1692,1.17,1.1701,1.1794,1.1794,1.1795,1.1767,1.1766,1.1765,0,0,0,0,0,1.1318,1.134,1.1352,1.1366,1.1443,1.1491,1.1501,1.1536,1.154,1.1552,1.1586,1.1605,1.1692,1.1685,1.1697,1.1707,1.1793,1.1794,1.1795,1.1767,1.1766,1.1765,0,0,0,0,0,0,1.1282,1.1348,1.1363,1.1404,1.1441,1.1498,1.1515,1.1534,1.1571,1.1572,1.1614,1.1626,1.1662,1.1689,1.168,1.1738,1.1744,1.1747,1.1719,1.1719,1.1717,1.171,1.1704,0,0,0,0,0,1.1279,1.1313,1.1368,1.1399,1.1417,1.1462,1.1484,1.1508,1.1549,1.1565,1.1602,1.1639,1.1675,1.1698,1.1735,1.1771,1.1783,1.1783,1.1782,1.1781,1.1783,1.1804,1.1804,1.1797,1.1797,1.1797,0,0,1.1273,1.1313,1.1332,1.1393,1.1425,1.1458,1.1476,1.151,1.1535,1.157,1.161,1.1638,1.1683,1.1721,1.174,1.1745,1.1788,1.1782,1.1781,1.1784,1.1804,1.1805,1.1805,1.1798,1.1798,1.1798,0,0,1.1279,1.1313,1.1342,1.1374,1.1422,1.1452,1.1458,1.1512,1.1532,1.1573,1.1599,1.1629,1.169,1.1721,1.1745,1.176,1.1779,1.1771,1.1765,1.1785,1.1785,1.1786,1.1791,1.1793,1.1773,1.1773,1.1773,0,1.1265,1.1317,1.1354,1.1388,1.1413,1.1446,1.1475,1.1503,1.1561,1.1577,1.1581,1.1658,1.1691,1.1736,1.174,1.1758,1.1767,1.1765,1.1782,1.1783,1.1784,1.179,1.1792,1.1771,1.1772,1.1772,1.1772,0,1.1298,1.1333,1.135,1.1405,1.1432,1.1463,1.1504,1.1527,1.1548,1.1577,1.1617,1.1657,1.1702,1.1714,1.1735,1.1762,1.1763,1.1774,1.1782,1.1783,1.1789,1.1791,1.177,1.177,1.177,1.1771,0,0,1.1285,1.1359,1.1365,1.1389,1.1444,1.1472,1.1503,1.1547,1.1566,1.1603,1.163,1.1681,1.1691,1.1718,1.1742,1.1759,1.1768,1.1768,1.1769,1.1766,1.18,1.1791,1.1793,1.178,1.1781,1.1781,1.1796,0,1.1298,1.1357,1.1391,1.1436,1.1468,1.1499,1.1527,1.1562,1.159,1.162,1.165,1.1685,1.1696,1.1713,1.173,1.1763,1.1775,1.1762,1.1805,1.1806,1.1793,1.1796,1.1788,1.18,1.1798,1.1799,1.1799,0,1.1322,1.136,1.1408,1.1458,1.1473,1.1497,1.1539,1.1568,1.1609,1.1628,1.1657,1.1681,1.1714,1.1718,1.1764,1.1755,1.1774,1.1792,1.1793,1.1799,1.1803,1.1802,1.1805,1.1806,1.1803,1.1803,1.1802,0,1.1308,1.137,1.1407,1.1427,1.1486,1.1502,1.1528,1.1569,1.1592,1.1629,1.1644,1.1684,1.1705,1.1735,1.1768,1.1768,1.1811,1.1818,1.1827,1.1826,1.1835,1.1834,1.1841,1.1847,1.1847,1.1847,1.1847,0,1.1319,1.1348,1.1401,1.1424,1.1455,1.1493,1.1523,1.1551,1.1586,1.1614,1.1643,1.1668,1.1711,1.1741,1.1767,1.1801,1.181,1.1826,1.1833,1.1824,1.1822,1.1837,1.1837,1.1847,1.1847,1.1847,1.1847,0,1.1309,1.1346,1.1388,1.1441,1.1455,1.1476,1.152,1.1543,1.1571,1.1605,1.1616,1.166,1.1697,1.1733,1.1782,1.18,1.1833,1.1842,1.182,1.1824,1.183,1.1829,1.1848,1.1852,1.1854,1.1854,1.1854,0,1.1314,1.1337,1.1392,1.1413,1.1437,1.1471,1.1495,1.1532,1.1556,1.1603,1.162,1.1659,1.1692,1.1749,1.1785,1.1823,1.1833,1.1837,1.1839,1.1829,1.1833,1.1831,1.1834,1.1836,1.1836,1.1835,1.1835,0,1.132,1.1336,1.1371,1.1411,1.1439,1.1473,1.1507,1.1522,1.1566,1.1591,1.1629,1.1655,1.1705,1.1743,1.1785,1.181,1.183,1.1834,1.1838,1.183,1.1816,1.1823,1.1817,1.1834,1.1834,1.1834,1.1834,1.1834,1.1317,1.1338,1.138,1.1417,1.1447,1.1478,1.1501,1.1532,1.1565,1.1609,1.1629,1.1667,1.1706,1.1764,1.1789,1.1818,1.1823,1.1829,1.1831,1.1832,1.183,1.181,1.1826,1.1826,1.1826,1.1826,1.1826,0,1.1324,1.1352,1.1386,1.1433,1.1461,1.1477,1.1516,1.1539,1.1572,1.1607,1.1639,1.1682,1.1719,1.1757,1.1796,1.1812,1.1822,1.1821,1.1821,1.1826,1.1823,1.1816,1.1813,1.1813,1.1813,1.1813,1.1813,1.1813,1.1331,1.1367,1.1389,1.1439,1.1467,1.1505,1.1526,1.1554,1.1582,1.1629,1.166,1.1685,1.1721,1.1762,1.1796,1.1807,1.182,1.1816,1.1829,1.1825,1.1826,1.1827,1.1821,1.1819,1.1819,1.183,1.183,1.183]},{"header":{"parameterUnit":"m.s-1","parameterCategory":1,"la1":30.2991,"la2":30.254,"lo1":-89.0895,"lo2":-89.0444,"dy":0.0017,"dx":0.0017,"nx":28,"ny":28,"refTime":"2024-04-13T21:00:00:Z","depth":0,"parameterNumber":3,"parameterNumberName":"V-component_of_WINDS"},"data":[0,0,0,0,0,0,0,0,0,0,0,0,0,0,0,0,0,0,0,0,0,0,0,0,0,0,0,0,0,0,0,0,0,0,0,0,0,0,0,0,0,0,0,0,0,0,0,0,0,0,0,0,0,0,0,0,0,0,3.5302,3.5301,0,3.5237,3.5236,3.5235,3.5166,3.5165,3.5164,3.5163,3.5093,3.5092,3.5091,0,0,0,0,0,0,0,0,0,0,0,0,0,3.5364,3.5363,3.5302,3.5301,3.53,3.5237,3.5236,3.5235,3.5166,3.5165,3.5164,3.5163,3.5093,3.5092,3.5091,0,0,0,0,0,0,0,0,0,0,0,0,0,3.5322,3.5363,3.5302,3.5258,3.5254,3.5237,3.5236,3.5235,3.5166,3.5165,3.5164,3.5162,3.5094,3.5092,3.5091,3.5111,0,0,3.5086,3.5086,0,0,0,0,0,0,0,0,3.5324,3.532,3.5266,3.5261,3.5256,3.5208,3.5232,3.5193,3.5167,3.52,3.5163,3.5161,3.5132,3.5128,3.5118,3.5108,3.5104,3.5086,3.5085,3.5085,3.5084,0,0,0,0,0,0,0,3.5327,3.5322,3.5276,3.5265,3.5259,3.5241,3.5233,3.5224,3.5175,3.5197,3.5191,3.5185,3.5129,3.512,3.5116,3.5103,3.5086,3.5085,3.5084,3.5084,3.5104,3.5106,0,0,0,0,0,0,3.5337,3.5325,3.5278,3.5274,3.5288,3.5241,3.5233,3.5225,3.5175,3.5166,3.5186,3.5182,3.5123,3.5118,3.5113,3.5133,3.5085,3.5083,3.5083,3.5103,3.5105,3.5106,0,0,0,0,0,0,3.5339,3.5334,3.5281,3.5298,3.529,3.5242,3.5234,3.5224,3.5215,3.5167,3.5157,3.5186,3.5122,3.5116,3.5112,3.5129,3.5083,3.5081,3.5101,3.5104,3.5105,3.5172,0,0,0,0,0,0,3.5341,3.5335,3.5343,3.5299,3.5289,3.5282,3.5235,3.5224,3.5213,3.5207,3.5164,3.5155,3.512,3.5115,3.5111,3.5126,3.508,3.5099,3.5102,3.5105,3.5168,3.5176,3.5183,0,0,0,0,0,3.5343,3.5363,3.5343,3.5338,3.5298,3.5283,3.5277,3.5237,3.5215,3.5222,3.5191,3.5157,3.5128,3.5115,3.511,3.5125,3.5098,3.5102,3.5105,3.5165,3.5175,3.5183,0,0,0,0,0,0,3.541,3.5357,3.5334,3.5341,3.5317,3.5271,3.5279,3.5249,3.523,3.5225,3.5175,3.5166,3.5168,3.5146,3.5132,3.5141,3.5108,3.5111,3.5156,3.5165,3.5172,3.5177,3.5079,0,0,0,0,0,3.5425,3.5418,3.5372,3.5382,3.5371,3.5328,3.5319,3.5291,3.5263,3.5252,3.5221,3.5195,3.518,3.5171,3.5155,3.5165,3.5154,3.5173,3.5181,3.5187,3.5189,3.5192,3.52,3.5117,3.5117,3.5117,0,0,3.5457,3.5427,3.5425,3.5395,3.5373,3.5365,3.5319,3.5313,3.5307,3.5251,3.5246,3.5222,3.519,3.5193,3.5193,3.5175,3.521,3.5191,3.5197,3.5195,3.5196,3.5204,3.5211,3.5119,3.5119,3.5118,0,0,3.5511,3.5488,3.5494,3.5473,3.5441,3.5411,3.5413,3.5372,3.5354,3.5348,3.5306,3.5297,3.5273,3.5251,3.5237,3.5283,3.525,3.5279,3.5318,3.5321,3.5327,3.5333,3.5348,3.5355,3.5281,3.5281,3.5282,0,3.5554,3.5542,3.55,3.5497,3.5484,3.5434,3.5439,3.5421,3.5385,3.5376,3.5357,3.5325,3.53,3.5297,3.5308,3.5299,3.5298,3.5283,3.533,3.5335,3.534,3.5354,3.536,3.5285,3.5285,3.5284,3.5284,0,3.5596,3.5588,3.5597,3.5564,3.5552,3.5553,3.5511,3.5504,3.5476,3.5448,3.5443,3.5411,3.5387,3.5384,3.5356,3.5377,3.5366,3.534,3.5305,3.5352,3.5364,3.5369,3.529,3.5289,3.5288,3.5287,0,0,3.5689,3.5634,3.5637,3.5622,3.5583,3.5575,3.5574,3.5551,3.5546,3.5522,3.5519,3.5499,3.5474,3.5458,3.5428,3.5431,3.5468,3.5403,3.5401,3.5415,3.5487,3.5507,3.5514,3.5447,3.5448,3.5448,3.549,0,3.5735,3.573,3.5693,3.5698,3.569,3.5642,3.5641,3.5616,3.559,3.5578,3.5549,3.5536,3.5504,3.5494,3.5495,3.5463,3.5481,3.546,3.5442,3.5441,3.5451,3.5521,3.5542,3.5583,3.5494,3.5495,3.5496,0,3.5789,3.577,3.5775,3.5735,3.573,3.573,3.5706,3.5696,3.5666,3.5647,3.563,3.5596,3.559,3.5558,3.5549,3.5535,3.5525,3.5509,3.5509,3.5505,3.5471,3.5518,3.5595,3.5601,3.5503,3.5502,3.5502,0,3.5855,3.5831,3.583,3.5818,3.5773,3.5773,3.5754,3.5723,3.5712,3.5691,3.5683,3.5661,3.5649,3.5632,3.5593,3.5573,3.5587,3.5553,3.557,3.5571,3.5575,3.5575,3.565,3.557,3.557,3.557,3.5569,0,3.591,3.5915,3.586,3.5859,3.5863,3.5819,3.5823,3.5799,3.5772,3.5766,3.5723,3.5717,3.5666,3.5654,3.5623,3.562,3.5615,3.5598,3.559,3.5601,3.5604,3.5594,3.559,3.5571,3.5571,3.5571,3.557,0,3.5985,3.5948,3.5944,3.5902,3.5891,3.5896,3.5858,3.5855,3.5827,3.5819,3.5815,3.577,3.5754,3.5713,3.5686,3.5665,3.5669,3.5654,3.568,3.5674,3.5694,3.5692,3.5765,3.5772,3.5688,3.5689,3.569,0,3.6022,3.6025,3.5983,3.5976,3.5959,3.5948,3.5936,3.5893,3.5883,3.585,3.5851,3.5831,3.5814,3.579,3.5754,3.5733,3.5716,3.5743,3.5713,3.5724,3.5716,3.5716,3.5715,3.575,3.5751,3.5752,3.5753,0,3.6092,3.6074,3.606,3.6039,3.6027,3.6009,3.5988,3.5984,3.5935,3.5926,3.5909,3.5896,3.5868,3.5849,3.5823,3.5801,3.5768,3.5763,3.5765,3.5777,3.5792,3.5783,3.5697,3.5761,3.576,3.5759,3.5759,3.5759,3.6148,3.6148,3.6119,3.6104,3.6084,3.6066,3.6061,3.6032,3.6018,3.5994,3.5969,3.5955,3.5924,3.5885,3.5866,3.5854,3.5837,3.5841,3.5842,3.5843,3.5848,3.5794,3.5849,3.5848,3.5848,3.5848,3.5848,0,3.6215,3.6194,3.6181,3.6154,3.6142,3.6114,3.6089,3.6081,3.607,3.6045,3.6028,3.6009,3.599,3.5953,3.5931,3.5928,3.5912,3.5924,3.5923,3.5918,3.5865,3.5865,3.5937,3.5937,3.5936,3.5936,3.5936,3.5936,3.6249,3.6247,3.6225,3.6213,3.6191,3.6178,3.6166,3.6148,3.6128,3.6109,3.6094,3.607,3.604,3.6015,3.5996,3.5986,3.5979,3.5995,3.598,3.593,3.5922,3.5914,3.5913,3.5994,3.5994,3.6033,3.6034,3.6034]}]]